"TOA5","AWS1","CR1000","7964","CR1000.Std.14","CPU:AWS1_114.CR1","64363","TBL110"
"TIMESTAMP","RECORD","Wind_spd_WVc(1)","Wind_spd_WVc(2)","Air_Temp_Avg","Humidity_Avg","SW_upper_Wm2_Avg","Rain_Tot","Press_Avg","Issui_Tot","Depth_cm","SR50A_Raw","Quality","Ground_Temp_Avg(1)","Ground_Temp_Avg(2)","SW_lower_Wm2_Avg","Albedo_Avg","SWC_per(1)","SWC_per(2)","Period(1)","Period(2)"
"TS","RN","","","","","","","","","","","","","","","","","","",""
"","","WVc","WVc","Avg","Avg","Avg","Tot","Avg","Tot","Smp","Smp","Smp","Avg","Avg","Avg","Avg","Smp","Smp","Smp","Smp"
"2018-02-20 00:00:00",328525,0.262,9.14,-4.48,63.75,0,0,862.036,0,106.6,2.131,173,0.9,1.545,0,0,52.21,59.73,33.84,35.62
"2018-02-20 00:10:00",328526,0.531,18.26,-4.383,61.58,0,0,862.0338,0,106.6,2.131,172,0.907,1.553,0,0,52.21,59.73,33.84,35.62
"2018-02-20 00:20:00",328527,0.568,359.9,-4.192,56.74,0,0,861.9179,0,106.6,2.13,173,0.906,1.555,0,0,52.21,59.73,33.84,35.62
"2018-02-20 00:30:00",328528,0.535,351.2,-4.006,55.04,0,0,862.0322,0,106.5,2.131,173,0.912,1.559,0,0,52.21,59.73,33.84,35.62
"2018-02-20 00:40:00",328529,0.687,3.455,-4.228,57.81,0,0,862.0343,0,106.4,2.133,174,0.915,1.562,0,0,52.21,59.73,33.84,35.62
"2018-02-20 00:50:00",328530,0.164,343.8,-4.574,62.19,0,0,862.0523,0,106.3,2.135,173,0.912,1.566,0,0,52.21,59.73,33.84,35.62
"2018-02-20 01:00:00",328531,0.086,106.4,-4.995,65.92,0,0,861.9969,0,106.5,2.135,173,0.909,1.582,0,0,52.21,59.67,33.84,35.6
"2018-02-20 01:10:00",328532,0.029,117.2,-5.271,68.11,0,0,862.0597,0,106.4,2.137,174,0.909,1.596,0,0,52.21,59.73,33.84,35.62
"2018-02-20 01:20:00",328533,0.3,322.7,-5.178,64.71,0,0,862.2139,0,106.4,2.136,173,0.923,1.613,0,0,52.21,59.73,33.84,35.62
"2018-02-20 01:30:00",328534,0.562,271.9,-4.959,63.5,0,0,862.3846,0,106.4,2.135,173,0.929,1.617,0,0,52.21,59.73,33.84,35.62
"2018-02-20 01:40:00",328535,0.505,226.5,-5.175,65.58,0,0,862.552,0,106.3,2.138,173,0.925,1.614,0,0,52.16,59.73,33.83,35.62
"2018-02-20 01:50:00",328536,0.508,174.9,-5.657,68.37,0,0,862.3814,0,106.4,2.139,173,0.927,1.61,0,0,52.21,59.73,33.84,35.62
"2018-02-20 02:00:00",328537,0.706,196.9,-5.851,71.66,0,0,862.3226,0,106.3,2.14,178,0.934,1.6,0,0,52.21,59.67,33.84,35.6
"2018-02-20 02:10:00",328538,0.649,252,-5.775,72.49,0,0,862.4403,0,106.3,2.14,173,0.946,1.574,0,0,52.21,59.73,33.84,35.62
"2018-02-20 02:20:00",328539,0.646,322.4,-5.763,74.17,0,0,862.5967,0,106.2,2.142,173,0.907,1.56,0,0,52.21,59.73,33.84,35.62
"2018-02-20 02:30:00",328540,0.447,203.4,-6.104,76.54,0,0,862.5441,0,106.4,2.141,173,0.904,1.552,0,0,52.21,59.67,33.84,35.6
"2018-02-20 02:40:00",328541,0.776,179.5,-6.29,78.27,0,0,862.4155,0,106,2.145,170,0.897,1.548,0,0,52.21,59.73,33.84,35.62
"2018-02-20 02:50:00",328542,0.431,162.8,-6.712,80.7,0,0,862.2384,0,106.1,2.146,173,0.906,1.545,0,0,52.21,59.73,33.84,35.62
"2018-02-20 03:00:00",328543,0.772,192.4,-6.629,81.1,0,0,862.1035,0,106.2,2.144,173,0.934,1.545,0.003793427,0,52.21,59.67,33.84,35.6
"2018-02-20 03:10:00",328544,0.841,182.2,-6.51,79.44,0,0,861.8463,0,106.2,2.143,174,0.938,1.545,0.03034742,0,52.21,59.67,33.84,35.6
"2018-02-20 03:20:00",328545,1.015,193,-6.211,76.32,0,0,861.6101,0,106.3,2.141,173,0.939,1.545,0.03793427,0,52.21,59.73,33.84,35.62
"2018-02-20 03:30:00",328546,0.787,167,-6.231,74.53,0,0,861.6101,0,105.9,2.146,173,0.94,1.544,0.0417277,0,52.21,59.73,33.84,35.62
"2018-02-20 03:40:00",328547,1.096,191.1,-6.343,74.78,0,0,861.608,0,106.1,2.144,174,0.94,1.548,0,0,52.21,59.67,33.84,35.6
"2018-02-20 03:50:00",328548,0.825,196.4,-6.4,73.3,0,0,861.6207,0,105.6,2.151,174,0.94,1.55,0,0,52.21,59.73,33.84,35.62
"2018-02-20 04:00:00",328549,0.471,160.7,-7.22,75.88,0,0,861.6797,0,106.1,2.149,174,0.94,1.542,0,0,52.21,59.67,33.84,35.6
"2018-02-20 04:10:00",328550,0.381,165.6,-7.686,77.51,0,0,861.8104,0,106.1,2.151,173,0.94,1.536,0,0,52.21,59.67,33.84,35.6
"2018-02-20 04:20:00",328551,0.753,188.2,-7.447,75.68,0,0,861.8632,0,106,2.15,170,0.941,1.514,0.08724882,0,52.21,59.67,33.84,35.6
"2018-02-20 04:30:00",328552,0.411,189,-7.497,74.37,0,0,861.8632,0,106,2.149,173,0.949,1.506,0,0,52.21,59.73,33.84,35.62
"2018-02-20 04:40:00",328553,0.488,185.3,-7.385,71.99,0,0,861.8555,0,106,2.15,173,0.972,1.507,0.05310798,0,52.21,59.67,33.84,35.6
"2018-02-20 04:50:00",328554,0.452,184.6,-7.49,71.92,0,0,861.8685,0,105.7,2.154,174,0.977,1.504,0.01896713,0,52.16,59.67,33.83,35.6
"2018-02-20 05:00:00",328555,0.588,205.7,-7.704,73.03,0,0,861.9799,0,106.2,2.147,169,0.973,1.522,0.04552466,0,52.21,59.67,33.84,35.6
"2018-02-20 05:10:00",328556,0.518,177.4,-7.667,72.2,0,0,862.1115,0,106.2,2.148,173,0.981,1.551,0.09484475,0,52.21,59.67,33.84,35.6
"2018-02-20 05:20:00",328557,0.367,150.1,-7.582,71.68,0,0,862.1492,0,105.7,2.153,173,0.98,1.565,0.1062331,0,52.21,59.73,33.84,35.62
"2018-02-20 05:30:00",328558,0.619,197.2,-7.419,71.39,0,0,862.059,0,105.6,2.153,178,0.992,1.594,0.110037,0,52.21,59.67,33.84,35.6
"2018-02-20 05:40:00",328559,0.572,163.2,-7.647,72.13,0,0,861.841,0,106,2.152,173,0.989,1.597,0,0,52.21,59.73,33.84,35.62
"2018-02-20 05:50:00",328560,0.757,175.9,-7.467,73.06,0,0,861.687,0,105.6,2.152,173,0.995,1.6,0.1631713,0,52.21,59.73,33.84,35.62
"2018-02-20 06:00:00",328561,0.434,187.9,-7.19,72.33,0,0,861.695,0,105.7,2.151,174,0.993,1.583,0.0493312,0,52.21,59.73,33.84,35.62
"2018-02-20 06:10:00",328562,0.666,155.2,-7.6,73.33,0,0,861.6925,0,105.9,2.151,173,0.985,1.605,0.04553662,0,52.21,59.67,33.84,35.6
"2018-02-20 06:20:00",328563,0.407,182.1,-7.502,72.75,0,0,861.6998,0,105.8,2.152,173,0.985,1.559,0.08348391,0,52.21,59.73,33.84,35.62
"2018-02-20 06:30:00",328564,0.278,166.9,-7.753,73.76,0,0,861.8034,0,105.7,2.153,173,0.987,1.548,0.1859414,0,52.21,59.73,33.84,35.62
"2018-02-20 06:40:00",328565,0.385,192.2,-7.716,73.57,0.3187883,0,861.719,0,105.5,2.155,174,0.985,1.551,2.197145,4.543,52.21,59.73,33.84,35.62
"2018-02-20 06:50:00",328566,0.306,248.3,-7.302,72.57,1.900923,0,861.8266,0,105.4,2.152,173,0.983,1.548,5.377123,2.941,52.21,59.73,33.84,35.62
"2018-02-20 07:00:00",328567,0.593,254.2,-6.411,69.54,3.0462,0,861.892,0,105.4,2.153,174,0.984,1.554,8.648174,3.108,52.21,59.73,33.84,35.62
"2018-02-20 07:10:00",328568,0.431,178.2,-7.359,71.95,6.611906,0,861.8013,0,105.7,2.153,174,0.985,1.556,10.48862,1.599,52.21,59.73,33.84,35.62
"2018-02-20 07:20:00",328569,0.561,185.6,-7.239,73.6,11.62593,0,861.7253,0,105.5,2.152,174,0.987,1.558,16.30972,1.464,52.21,59.73,33.84,35.62
"2018-02-20 07:30:00",328570,0.456,170.2,-7.141,73.05,30.46593,0,861.7042,0,105.4,2.153,173,0.985,1.585,34.49783,1.175,52.21,59.73,33.84,35.62
"2018-02-20 07:40:00",328571,0.735,164.1,-6.54,71.43,61.77016,0,861.7001,0,105.7,2.147,173,0.987,1.589,39.57517,0.806,52.21,59.73,33.84,35.62
"2018-02-20 07:50:00",328572,0.867,169.8,-5.916,69.83,104.2635,0,861.7001,0,105.4,2.149,174,0.998,1.59,47.99566,0.502,52.21,59.73,33.84,35.62
"2018-02-20 08:00:00",328573,0.394,167.4,-5.556,69.51,64.82029,0,861.7507,0,105.4,2.147,170,1.013,1.59,58.30592,1.018,52.21,59.67,33.84,35.6
"2018-02-20 08:10:00",328574,0.41,159.7,-5.248,68.47,55.67382,0,861.989,0,105.7,2.143,174,1.016,1.569,64.43819,1.237,52.21,59.73,33.84,35.62
"2018-02-20 08:20:00",328575,0.357,139.6,-4.933,67.4,48.83759,0,861.9996,0,105.4,2.145,174,1.029,1.56,67.78135,1.412,52.21,59.67,33.84,35.6
"2018-02-20 08:30:00",328576,0.355,310.2,-4.437,63.71,72.73489,0,862.2009,0,105.5,2.141,174,1.022,1.558,72.46024,1.108,52.21,59.73,33.84,35.62
"2018-02-20 08:40:00",328577,0.468,333.1,-4.282,64.08,92.97091,0,862.2273,0,105.6,2.14,170,0.988,1.604,73.37003,0.832,52.21,59.67,33.84,35.6
"2018-02-20 08:50:00",328578,0.477,246.7,-3.953,65.84,94.2046,0,862.1791,0,105.6,2.14,177,0.943,1.609,71.82146,0.902,52.21,59.67,33.84,35.6
"2018-02-20 09:00:00",328579,0.736,325.4,-3.91,65.33,80.10993,0,862.1224,0,105.7,2.138,173,0.978,1.61,69.39737,1.137,52.21,59.73,33.84,35.62
"2018-02-20 09:10:00",328580,0.555,245,-3.715,65.63,57.40553,0,862.0692,0,105.8,2.136,170,0.964,1.577,66.13168,1.177,52.21,59.73,33.84,35.62
"2018-02-20 09:20:00",328581,0.76,157.6,-3.214,65.31,71.51962,0,861.9036,0,105.5,2.138,169,0.963,1.553,66.62938,0.974,52.21,59.73,33.84,35.62
"2018-02-20 09:30:00",328582,0.863,178.2,-3.251,64.21,70.39722,0,861.8063,0,105.3,2.14,170,0.968,1.548,67.96358,0.98,52.21,59.67,33.84,35.6
"2018-02-20 09:40:00",328583,0.725,322.9,-3.443,63.15,72.66304,0,861.781,0.5,105.5,2.137,170,0.943,1.533,69.67027,0.988,52.21,59.73,33.84,35.62
"2018-02-20 09:50:00",328584,0.504,321.5,-3.139,61.38,60.4862,0,861.8505,0,105.6,2.136,170,0.942,1.511,71.24442,1.178,52.21,59.67,33.84,35.6
"2018-02-20 10:00:00",328585,0.557,319.4,-3.023,59.27,62.0481,0,861.9244,0,105.5,2.137,169,0.942,1.511,73.19801,1.18,52.21,59.73,33.84,35.62
"2018-02-20 10:10:00",328586,0.641,286.8,-2.767,57.68,67.89842,0,861.9095,0,105.5,2.136,170,0.942,1.521,76.15688,1.129,52.21,59.67,33.84,35.6
"2018-02-20 10:20:00",328587,0.731,348.2,-2.716,52.46,67.19327,0,862.0886,0,105.4,2.136,169,0.941,1.534,79.69506,1.186,52.21,59.73,33.84,35.62
"2018-02-20 10:30:00",328588,1.055,252.1,-2.469,49.8,69.07889,0,861.9874,0,105,2.139,169,0.95,1.533,89.50105,1.295,52.21,59.73,33.84,35.62
"2018-02-20 10:40:00",328589,1.119,271.4,-2.544,49,74.37189,0,862.0399,0,105.5,2.135,169,0.954,1.525,110.9103,1.492,52.21,59.73,33.84,35.62
"2018-02-20 10:50:00",328590,0.834,287.5,-2.434,49.35,74.94286,0,862.0255,0,105.1,2.139,169,0.962,1.513,126.3123,1.686,52.21,59.73,33.84,35.62
"2018-02-20 11:00:00",328591,0.58,309.8,-2.439,48,78.60925,0,862.2805,0,105.3,2.136,170,0.926,1.508,126.8181,1.613,52.21,59.73,33.84,35.62
"2018-02-20 11:10:00",328592,1.592,300.9,-2.55,46.91,129.1846,0,862.2752,0,105.1,2.139,169,0.912,1.535,136.1112,1.1,52.27,59.73,33.85,35.62
"2018-02-20 11:20:00",328593,0.86,328.9,-2.371,48.21,160.3388,0,862.275,0,105.2,2.136,170,0.911,1.545,142.6554,0.939,52.21,59.67,33.84,35.6
"2018-02-20 11:30:00",328594,0.739,291.8,-2.165,48.95,185.1537,0,862.2475,0,104.8,2.14,169,0.865,1.55,168.4398,0.979,52.21,59.73,33.84,35.62
"2018-02-20 11:40:00",328595,0.893,296.1,-1.958,48.94,204.19,0,862.0241,0,105,2.138,169,0.856,1.546,209.5021,1.101,52.21,59.73,33.84,35.62
"2018-02-20 11:50:00",328596,0.521,288.1,-1.948,48.6,226.2566,0,861.9841,0,104.8,2.138,169,0.855,1.545,269.4621,1.218,52.27,59.73,33.85,35.62
"2018-02-20 12:00:00",328597,0.862,305.1,-1.227,47.91,455.7688,0,861.8154,0,104.7,2.137,169,0.854,1.544,351.4247,0.854,52.21,59.73,33.84,35.62
"2018-02-20 12:10:00",328598,0.937,257.3,-1.047,47.49,755.9055,0,861.6144,0,104.9,2.135,173,0.877,1.523,463.888,0.616,52.21,59.73,33.84,35.62
"2018-02-20 12:20:00",328599,1.336,313,-1.304,45.25,652.4105,0,861.6226,0,104.7,2.138,169,0.989,1.478,454.063,0.712,52.27,59.73,33.85,35.62
"2018-02-20 12:30:00",328600,1.071,5.641,-0.838,45.24,708.6923,0,861.4831,0,104.6,2.138,173,0.953,1.478,529.4988,0.749,52.27,59.73,33.85,35.62
"2018-02-20 12:40:00",328601,0.822,281.3,-1.543,48.48,340.5513,0,861.4675,0,104.8,2.14,174,0.89,1.515,276.2522,0.856,52.21,59.73,33.84,35.62
"2018-02-20 12:50:00",328602,1.091,288.9,-1.783,48.68,385.2528,0,861.5837,0,104.8,2.14,174,0.852,1.474,314.8747,0.842,52.21,59.73,33.84,35.62
"2018-02-20 13:00:00",328603,0.841,308.9,-1.733,49.26,377.844,0,861.403,0,104.6,2.14,173,0.846,1.436,335.2674,0.916,52.21,59.73,33.84,35.62
"2018-02-20 13:10:00",328604,0.809,334.3,-1.009,47.25,563.5033,0,861.3336,0,104.6,2.137,173,0.856,1.441,525.5701,0.98,52.21,59.73,33.84,35.62
"2018-02-20 13:20:00",328605,1.094,14.8,-0.977,48.79,301.4639,0,861.2315,0,104.3,2.14,172,0.845,1.475,289.9183,1.061,52.27,59.73,33.85,35.62
"2018-02-20 13:30:00",328606,1.27,338.5,-1.412,50.57,133.8615,0,861.0964,0,104.6,2.142,173,0.828,1.478,146.5149,1.157,52.21,59.73,33.84,35.62
"2018-02-20 13:40:00",328607,0.753,288.6,-1.892,51.99,293.1387,0,861.1533,0,104.8,2.137,173,0.832,1.465,276.89,1.085,52.21,59.73,33.84,35.62
"2018-02-20 13:50:00",328608,0.639,349.4,-1.218,49.82,185.6685,0,861.3534,0,104.7,2.138,173,0.825,1.426,193.3998,1.108,52.27,59.73,33.85,35.62
"2018-02-20 14:00:00",328609,1.388,335.6,-1.658,49.55,97.87472,0,861.3091,0,104.7,2.14,173,0.835,1.412,130.3081,1.351,52.21,59.73,33.84,35.62
"2018-02-20 14:10:00",328610,1.159,328,-1.742,48.63,108.2262,0,861.3386,0,104.6,2.141,173,0.806,1.405,126.4735,1.197,52.21,59.73,33.84,35.62
"2018-02-20 14:20:00",328611,1.015,7.268,-1.356,48.87,246.0459,0,861.3408,0,104.7,2.136,178,0.763,1.414,183.4695,0.848,52.21,59.73,33.84,35.62
"2018-02-20 14:30:00",328612,0.683,301.1,-0.924,48.47,135.5474,0,861.3408,0,104.7,2.137,173,0.764,1.41,170.207,1.267,52.27,59.73,33.85,35.62
"2018-02-20 14:40:00",328613,0.834,336.4,-1.011,48.54,131.3422,0,861.3408,0,104.7,2.137,173,0.764,1.401,161.6883,1.233,52.27,59.73,33.85,35.62
"2018-02-20 14:50:00",328614,0.609,310.9,-1.071,50.41,109.3326,0,861.3449,0,104.4,2.14,169,0.787,1.37,132.3876,1.216,52.21,59.73,33.84,35.62
"2018-02-20 15:00:00",328615,0.831,338.9,-0.945,48.17,96.40986,0,861.3408,0,104.4,2.14,169,0.764,1.387,125.5399,1.307,52.21,59.73,33.84,35.62
"2018-02-20 15:10:00",328616,0.515,303,-1.319,49.79,61.81557,0,861.2902,0,104.4,2.143,174,0.763,1.416,73.79002,1.188,52.21,59.73,33.84,35.62
"2018-02-20 15:20:00",328617,1.137,301.8,-1.756,49.99,48.08402,0,861.3281,0,104.3,2.144,173,0.798,1.426,61.24777,1.275,52.27,59.73,33.85,35.62
"2018-02-20 15:30:00",328618,1.156,314,-1.732,48.05,61.47424,0,861.3449,0,104.3,2.143,173,0.86,1.466,82.70163,1.348,52.21,59.73,33.84,35.62
"2018-02-20 15:40:00",328619,0.969,298.6,-1.768,50.3,41.4249,0,861.3575,0,104.3,2.145,186,0.895,1.426,59.24895,1.435,52.21,59.73,33.84,35.62
"2018-02-20 15:50:00",328620,0.927,287.4,-2.035,52.19,30.99096,0,861.3651,0,104.2,2.146,173,0.919,1.396,42.04895,1.356,52.21,59.73,33.84,35.62
"2018-02-20 16:00:00",328621,0.822,265.2,-2.19,52.95,25.44098,0,861.3907,0,104.3,2.145,181,0.928,1.419,34.92797,1.374,52.21,59.73,33.84,35.62
"2018-02-20 16:10:00",328622,0.625,258.3,-2.206,54.89,27.97726,0,861.4681,0,104.2,2.147,173,0.906,1.452,38.99228,1.393,52.21,59.73,33.84,35.62
"2018-02-20 16:20:00",328623,1.051,288,-2.458,52.25,25.14664,0,861.4283,0,104.2,2.147,177,0.828,1.454,37.05535,1.475,52.21,59.73,33.84,35.62
"2018-02-20 16:30:00",328624,0.847,307.1,-2.516,53.73,18.25847,0,861.3235,0,104.2,2.148,186,0.788,1.455,27.20682,1.492,52.21,59.73,33.84,35.62
"2018-02-20 16:40:00",328625,0.735,272,-2.735,56.25,16.273,0,861.3605,0,104.3,2.148,174,0.805,1.455,24.21586,1.488,52.27,59.73,33.85,35.62
"2018-02-20 16:50:00",328626,0.708,261.3,-2.817,57.74,14.72787,0,861.1922,0,104.3,2.149,173,0.815,1.455,21.94894,1.492,52.21,59.73,33.84,35.62
"2018-02-20 17:00:00",328627,0.966,294.4,-2.909,57.93,11.59437,0,861.2977,0,104.3,2.149,174,0.809,1.455,17.94961,1.55,52.21,59.73,33.84,35.62
"2018-02-20 17:10:00",328628,0.739,276.6,-3.114,60.94,8.287869,0,861.4199,0,104.2,2.151,173,0.831,1.452,13.8176,1.674,52.21,59.73,33.84,35.62
"2018-02-20 17:20:00",328629,0.761,317.2,-3.286,61.61,2.763967,0,861.3861,0,104.3,2.15,173,0.854,1.45,7.35055,3.119,52.27,59.73,33.85,35.62
"2018-02-20 17:30:00",328630,1.095,318.9,-3.295,61.55,0.283094,0,861.3549,0,104.1,2.151,177,0.879,1.472,4.037629,2.633,52.21,59.73,33.84,35.62
"2018-02-20 17:40:00",328631,1.002,327.5,-3.272,61.93,0,0,861.4656,0,104.1,2.152,190,0.912,1.483,0.9630926,0,52.21,59.73,33.84,35.62
"2018-02-20 17:50:00",328632,0.524,245,-3.512,64.84,0,0,861.4852,0,104.1,2.154,178,0.929,1.509,0.08342243,0,52.21,59.73,33.84,35.62
"2018-02-20 18:00:00",328633,0.462,267.3,-3.778,67.8,0,0,861.5091,0,104,2.155,173,0.936,1.521,0,0,52.27,59.73,33.85,35.62
"2018-02-20 18:10:00",328634,0.399,304.9,-3.817,68.97,0,0,861.5175,0,104.1,2.154,191,0.932,1.511,0,0,52.21,59.73,33.84,35.62
"2018-02-20 18:20:00",328635,0.633,322.6,-3.824,69.59,0,0,861.5196,0,104.1,2.154,186,0.91,1.497,0,0,52.21,59.73,33.84,35.62
"2018-02-20 18:30:00",328636,0.787,330.6,-3.803,70.16,0,0,861.5243,0,104.1,2.154,191,0.901,1.477,0,0,52.27,59.73,33.85,35.62
"2018-02-20 18:40:00",328637,0.75,307,-3.888,70.93,0,0,861.7288,0,104.1,2.155,190,0.857,1.469,0,0,52.21,59.73,33.84,35.62
"2018-02-20 18:50:00",328638,0.237,276.7,-3.941,72.63,0,0,861.7584,0,104,2.156,189,0.859,1.463,0,0,52.21,59.73,33.84,35.62
"2018-02-20 19:00:00",328639,0.598,292.8,-4.102,74.7,0,0,861.8806,0,104,2.157,190,0.872,1.457,0,0,52.21,59.67,33.84,35.6
"2018-02-20 19:10:00",328640,0.262,254,-4.283,79.07,0,0,862.0176,0,104,2.157,190,0.889,1.457,0,0,52.21,59.73,33.84,35.62
"2018-02-20 19:20:00",328641,0.5,303.8,-4.462,80.5,0,0,862.0344,0,104,2.158,190,0.907,1.46,0,0,52.27,59.73,33.85,35.62
"2018-02-20 19:30:00",328642,0.652,332,-4.545,81.8,0,0,862.2263,0,104,2.158,191,0.921,1.457,0.007584261,0,52.21,59.67,33.84,35.6
"2018-02-20 19:40:00",328643,0.147,287.5,-4.555,80.5,0,0,862.2094,0,103.9,2.159,192,0.934,1.457,0,0,52.21,59.73,33.84,35.62
"2018-02-20 19:50:00",328644,0.541,313.8,-4.573,81.6,0,0,862.3105,0,104,2.159,191,0.929,1.457,0.00379213,0,52.21,59.67,33.84,35.6
"2018-02-20 20:00:00",328645,0.274,285.8,-4.752,83.1,0,0,862.4138,0,103.8,2.161,189,0.934,1.457,0,0,52.21,59.73,33.84,35.62
"2018-02-20 20:10:00",328646,0.461,336.1,-4.965,86.4,0,0,862.2852,0,103.3,2.167,196,0.938,1.457,0,0,52.21,59.73,33.84,35.62
"2018-02-20 20:20:00",328647,0.584,325.2,-5.041,87.3,0,0,862.281,0,103.5,2.165,197,0.938,1.458,0,0,52.21,59.73,33.84,35.62
"2018-02-20 20:30:00",328648,1.118,304.4,-5.042,79.63,0,0,862.3232,0,103.5,2.165,198,0.936,1.459,0.03033704,0,52.21,59.73,33.84,35.62
"2018-02-20 20:40:00",328649,0.715,314.2,-5.076,77.08,0,0,862.4138,0,103.5,2.165,188,0.929,1.476,0.03412917,0,52.21,59.73,33.84,35.62
"2018-02-20 20:50:00",328650,0.427,329.8,-5.077,74.73,0,0,862.477,0,103.5,2.165,198,0.911,1.494,0.1933987,0,52.21,59.73,33.84,35.62
"2018-02-20 21:00:00",328651,0.592,301.5,-5.1,74.3,0,0,862.3674,0,103.5,2.166,193,0.895,1.5,0.1592695,0,52.27,59.73,33.85,35.62
"2018-02-20 21:10:00",328652,0.726,303.1,-5.212,73.24,0,0,862.3506,0,103.6,2.165,195,0.896,1.5,0.06067409,0,52.21,59.67,33.84,35.6
"2018-02-20 21:20:00",328653,1.071,326.2,-5.255,71.51,0,0,862.3464,0,103.6,2.165,218,0.861,1.5,0.1403088,0,52.21,59.73,33.84,35.62
"2018-02-20 21:30:00",328654,0.634,319.7,-5.327,71.72,0,0,862.2684,0,103.6,2.165,197,0.859,1.5,0.03033704,0,52.21,59.73,33.84,35.62
"2018-02-20 21:40:00",328655,0.542,298.7,-5.376,72.04,0,0,862.1967,0,103.5,2.166,198,0.858,1.508,0.05688234,0,52.21,59.73,33.84,35.62
"2018-02-20 21:50:00",328656,0.358,308.6,-5.409,72.05,0,0,862.0808,0,103.5,2.166,197,0.875,1.541,0.07964262,0,52.21,59.73,33.84,35.62
"2018-02-20 22:00:00",328657,0.615,309.1,-5.378,71.97,0,0,862.144,0,103.7,2.164,211,0.889,1.553,0.2313526,0,52.27,59.73,33.85,35.62
"2018-02-20 22:10:00",328658,0.805,314.2,-5.375,71.16,0,0,862.0281,0,103.7,2.164,216,0.896,1.565,0.2237735,0,52.27,59.73,33.85,35.62
"2018-02-20 22:20:00",328659,0.365,248.2,-5.357,72.5,0,0,862.0387,0,103.6,2.165,217,0.897,1.572,0.1668824,0,52.21,59.73,33.84,35.62
"2018-02-20 22:30:00",328660,0.376,147.9,-5.398,73.89,0,0,862.0429,0,103.8,2.163,236,0.9,1.573,0.1744702,0,52.21,59.73,33.84,35.62
"2018-02-20 22:40:00",328661,0.751,332.9,-5.373,73.31,0,0,862.0137,0,103.1,2.17,172,0.902,1.585,0.1858499,0,52.21,59.67,33.84,35.6
"2018-02-20 22:50:00",328662,0.516,278.9,-5.492,74.33,0,0,861.7926,0,103.2,2.17,170,0.91,1.596,0.03034369,0,52.21,59.67,33.84,35.6
"2018-02-20 23:00:00",328663,0.808,328.7,-5.596,74.81,0,0,861.749,0,103.2,2.17,170,0.918,1.605,0.0189656,0,52.21,59.73,33.84,35.62
"2018-02-20 23:10:00",328664,0.296,271.6,-5.664,76.73,0,0,861.8055,0,103.2,2.171,170,0.923,1.607,0.1024157,0,52.21,59.73,33.84,35.62
"2018-02-20 23:20:00",328665,0.417,201,-5.728,79.66,0,0,861.6644,0,103.2,2.171,170,0.933,1.602,0.1782855,0,52.21,59.73,33.84,35.62
"2018-02-20 23:30:00",328666,0.702,185.4,-5.795,82.6,0,0,861.6448,0,103.1,2.172,190,0.938,1.621,0.2238094,0,52.21,59.73,33.84,35.62
"2018-02-20 23:40:00",328667,0.491,177.2,-5.805,84.4,0,0,861.7449,0,103,2.173,192,0.937,1.614,0.1175937,0,52.21,59.73,33.84,35.62
"2018-02-20 23:50:00",328668,0.467,181.1,-5.888,85.6,0,0,861.631,0,103.2,2.172,169,0.931,1.607,0.00758659,0,52.21,59.73,33.84,35.62
